Temp
48 48 48 48 47 48 48 47 47 49 49 50 51 52 51 51 50 49 47 62 63 63 64 64 64 64 64 65 65 66 65 64 65 65 65 66 67 67 67 68 68 69 69
48 48 48 49 47 47 48 47 47 48 48 49 50 52 51 50 50 49 49 49 61 62 63 63 63 64 63 64 65 65 65 65 64 64 64 65 66 66 66 66 66 67 68
49 48 48 47 47 48 49 48 48 48 48 50 48 50 51 51 50 50 49 49 50 59 61 62 63 63 64 64 64 64 64 64 64 63 63 64 64 65 65 66 66 67 67
52 49 48 47 48 48 47 46 46 46 45 45 45 47 48 49 50 50 50 49 48 50 54 61 62 62 63 63 64 64 64 64 63 64 62 64 64 64 64 65 66 66 67
53 49 48 47 48 47 46 46 46 44 44 44 47 48 46 47 49 54 49 50 49 49 48 56 60 61 62 62 62 62 63 63 63 62 61 62 62 63 63 64 65 66 66
52 48 47 47 48 47 45 45 45 45 44 44 51 49 45 46 47 47 47 51 49 49 49 49 47 49 60 61 61 61 61 61 62 61 61 61 62 62 62 63 64 65 66
51 49 47 47 47 46 46 46 45 44 43 44 42 43 43 44 46 45 46 46 48 49 48 48 47 47 47 57 58 59 59 59 61 60 60 60 61 61 62 63 63 64 65
50 49 47 47 46 45 45 45 44 42 42 43 41 37 37 42 44 46 45 47 46 46 48 49 48 49 45 45 50 56 57 58 60 60 59 60 60 60 61 62 63 64 65
51 49 48 47 47 45 44 44 44 43 41 42 43 41 32 34 36 42 43 44 45 44 44 46 48 49 46 44 48 49 55 57 58 59 59 58 59 60 60 61 62 63 64
50 50 49 48 47 45 44 45 48 44 42 41 42 47 41 40 35 34 40 42 44 46 44 44 45 46 46 45 51 53 55 56 57 58 59 59 59 59 59 61 62 62 63
49 50 49 48 47 46 45 45 46 43 42 41 40 41 40 39 38 36 32 37 40 43 44 44 43 43 46 46 44 48 56 56 57 57 58 58 59 59 59 60 61 62 62
48 49 50 49 47 46 46 45 45 44 43 42 42 41 40 39 37 36 33 34 36 40 42 43 43 42 43 43 49 55 56 56 56 57 57 57 57 58 58 59 60 60 61
45 49 48 47 48 47 47 46 45 44 43 41 41 41 41 41 41 40 37 35 35 37 40 42 42 42 46 43 44 52 54 56 56 56 56 56 56 56 57 58 59 59 59
51 49 49 49 49 48 48 46 44 45 43 42 42 41 42 42 42 41 39 37 34 35 36 38 41 42 43 42 45 54 45 54 56 55 55 55 55 55 55 55 55 56 57
52 47 49 49 49 49 49 47 46 45 44 42 42 41 41 42 42 41 40 39 37 32 33 36 37 42 43 42 45 45 43 53 54 54 54 54 54 55 55 56 55 55 55
49 50 49 49 49 49 49 47 46 44 44 44 44 42 41 41 42 41 40 39 38 37 33 36 38 41 43 47 47 45 45 50 51 52 53 53 54 54 55 54 54 54 54
49 51 50 50 49 49 49 47 47 47 45 45 45 42 44 43 42 40 39 40 39 37 36 39 39 42 41 41 43 42 43 41 41 50 52 53 53 53 54 54 53 53 53
51 52 51 50 50 49 49 48 47 50 46 45 45 45 44 47 41 41 40 39 39 39 37 38 38 40 41 42 40 39 44 46 40 48 51 52 51 51 52 53 52 51 51
50 50 51 50 49 49 49 48 49 48 47 47 46 45 46 43 43 40 41 40 40 45 38 38 41 40 40 41 39 38 39 37 43 48 47 49 49 49 51 51 52 50 50
50 50 51 52 51 51 50 49 48 47 47 48 47 46 46 44 45 42 42 42 42 40 38 37 40 39 39 41 37 36 34 34 35 43 44 46 47 48 48 49 49 49 49
51 51 51 50 51 51 51 49 49 48 47 46 47 47 47 48 52 49 46 41 41 40 38 39 39 38 37 37 35 31 28 31 32 33 33 34 35 36 38 44 45 47 50
47 47 49 50 49 52 55 55 51 47 48 47 46 46 48 52 52 55 56 54 46 41 39 38 40 38 37 35 30 34 33 33 27 33 31 33 34 34 36 37 46 49 50
46 46 47 48 49 49 56 56 55 50 48 47 47 47 46 49 51 49 53 56 56 55 50 42 40 39 36 37 34 32 33 32 29 31 32 30 32 32 36 41 46 49 50
46 46 47 48 48 51 55 56 57 52 50 48 48 48 46 46 47 47 45 44 45 44 47 49 44 43 42 38 37 35 34 33 35 34 34 31 27 27 34 35 46 48 49
45 46 48 47 46 49 54 56 55 52 51 49 48 48 47 46 49 52 45 42 41 42 50 53 52 50 50 49 42 36 29 28 27 26 30 29 26 27 31 33 37 47 47
48 48 48 46 50 48 53 55 55 53 50 50 49 48 50 48 51 52 47 41 37 37 38 40 41 46 51 48 52 41 35 30 27 26 31 29 27 29 26 30 33 35 35
MSLP
1029.04 1029.06 1029.05 1029.00 1029.15 1029.14 1029.14 1029.19 1029.10 1028.88 1028.70 1028.37 1028.25 1027.97 1028.06 1028.07 1028.07 1028.09 1027.95 1027.43 1027.33 1026.97 1026.59 1026.40 1026.27 1025.96 1025.58 1025.34 1025.02 1024.68 1024.43 1024.22 1023.79 1023.35 1023.07 1022.55 1022.12 1021.84 1021.38 1021.10 1020.70 1020.44 1020.19
1028.91 1028.99 1029.02 1028.98 1029.10 1029.06 1029.01 1029.11 1029.03 1028.87 1028.71 1028.49 1028.29 1028.01 1027.85 1027.94 1027.98 1027.96 1027.90 1027.87 1027.48 1027.28 1026.88 1026.50 1026.33 1026.17 1025.83 1025.54 1025.17 1024.79 1024.48 1024.09 1023.99 1023.61 1023.30 1022.82 1022.27 1021.83 1021.55 1021.15 1020.90 1020.34 1019.98
1028.75 1028.82 1028.95 1029.17 1029.10 1028.97 1028.91 1028.95 1028.88 1028.80 1028.75 1028.49 1028.22 1028.02 1027.98 1027.75 1027.83 1027.82 1027.78 1027.77 1027.56 1027.28 1027.00 1026.77 1026.45 1026.18 1025.80 1025.56 1025.13 1024.80 1024.52 1024.27 1023.87 1023.75 1023.54 1023.04 1022.47 1021.90 1021.58 1021.11 1020.74 1020.27 1019.94
1028.31 1028.55 1028.86 1029.00 1028.94 1028.88 1029.00 1029.02 1028.98 1028.90 1028.90 1028.85 1028.57 1028.25 1028.04 1027.72 1027.64 1027.62 1027.70 1027.62 1027.54 1027.49 1027.27 1026.84 1026.48 1026.20 1025.92 1025.59 1025.23 1024.90 1024.66 1024.24 1023.89 1023.53 1023.52 1022.97 1022.58 1022.08 1021.56 1021.11 1020.61 1020.20 1019.75
1028.16 1028.48 1028.71 1028.78 1028.78 1028.77 1028.94 1028.97 1028.89 1028.92 1028.83 1028.67 1028.41 1028.01 1027.97 1027.83 1027.51 1027.32 1027.54 1027.50 1027.47 1027.30 1027.14 1026.89 1026.55 1026.38 1026.07 1025.80 1025.40 1025.11 1024.62 1024.30 1023.85 1023.64 1023.45 1022.98 1022.54 1022.11 1021.63 1021.11 1020.49 1019.82 1019.52
1027.98 1028.34 1028.53 1028.57 1028.57 1028.65 1028.85 1028.95 1028.94 1028.80 1028.82 1028.69 1028.42 1028.05 1027.82 1027.64 1027.59 1027.48 1027.54 1027.36 1027.28 1027.14 1026.96 1026.86 1026.76 1026.60 1026.12 1025.77 1025.47 1025.20 1024.86 1024.62 1024.02 1023.75 1023.37 1022.97 1022.44 1021.98 1021.59 1021.05 1020.42 1019.85 1019.28
1027.43 1027.83 1028.19 1028.37 1028.50 1028.60 1028.62 1028.66 1028.68 1028.79 1028.74 1028.61 1028.67 1028.24 1027.79 1027.58 1027.64 1027.53 1027.40 1027.38 1027.20 1027.12 1026.93 1026.89 1026.67 1026.50 1026.26 1026.01 1025.75 1025.40 1025.15 1024.80 1024.02 1023.87 1023.45 1022.97 1022.27 1021.83 1021.24 1020.58 1020.13 1019.59 1018.95
1027.11 1027.42 1027.67 1027.90 1028.06 1028.33 1028.38 1028.47 1028.50 1028.73 1028.75 1028.60 1028.83 1029.12 1029.04 1028.36 1027.89 1027.54 1027.44 1027.27 1027.25 1027.13 1026.92 1026.58 1026.38 1026.09 1026.18 1026.10 1025.72 1025.47 1025.32 1024.72 1023.99 1023.51 1023.25 1022.69 1022.10 1021.64 1020.96 1020.36 1019.84 1019.27 1018.62
1026.26 1026.62 1027.02 1027.35 1027.59 1027.78 1027.88 1027.95 1028.11 1028.41 1028.69 1028.50 1028.37 1028.67 1029.22 1029.23 1028.87 1027.84 1027.54 1027.27 1027.09 1027.01 1026.85 1026.57 1026.18 1025.93 1025.96 1025.78 1025.60 1025.43 1025.08 1024.41 1023.99 1023.46 1022.89 1022.46 1021.95 1021.41 1020.80 1020.25 1019.48 1018.78 1018.27
1025.69 1025.92 1026.21 1026.65 1027.04 1027.26 1027.52 1027.50 1027.40 1027.88 1028.23 1028.56 1028.42 1028.26 1028.33 1028.58 1029.03 1029.04 1027.84 1027.28 1027.01 1026.90 1026.55 1026.25 1026.01 1025.76 1025.57 1025.45 1025.20 1025.00 1024.65 1024.19 1023.79 1023.23 1022.59 1022.03 1021.63 1021.17 1020.65 1019.83 1019.17 1018.70 1018.21
1025.03 1025.20 1025.52 1025.79 1026.15 1026.50 1026.73 1026.90 1026.93 1027.21 1027.39 1027.80 1028.16 1028.13 1028.27 1028.43 1028.46 1028.87 1028.74 1027.86 1027.26 1026.66 1026.22 1025.98 1025.62 1025.44 1025.15 1025.02 1024.89 1024.72 1024.29 1023.96 1023.49 1022.93 1022.32 1021.80 1021.26 1020.85 1020.40 1019.66 1019.19 1018.59 1018.06
1024.69 1024.64 1024.77 1025.09 1025.36 1025.71 1025.99 1026.18 1026.41 1026.71 1026.87 1027.00 1027.13 1027.40 1027.66 1027.88 1028.27 1028.43 1028.57 1028.07 1027.69 1026.70 1026.14 1025.60 1025.36 1025.19 1025.07 1024.92 1024.58 1024.29 1023.98 1023.60 1023.14 1022.56 1022.02 1021.64 1021.11 1020.68 1020.25 1019.74 1019.10 1018.54 1017.78
1024.05 1023.98 1024.19 1024.45 1024.61 1024.86 1025.18 1025.56 1025.84 1026.12 1026.19 1026.44 1026.64 1026.80 1026.81 1027.05 1027.19 1027.57 1027.84 1027.71 1027.46 1026.57 1026.08 1025.42 1024.98 1024.82 1024.57 1024.35 1024.11 1023.82 1023.50 1023.17 1022.74 1022.32 1021.86 1021.31 1020.90 1020.52 1020.12 1019.40 1018.77 1018.23 1017.70
1023.00 1023.18 1023.49 1023.71 1023.90 1024.05 1024.32 1024.89 1025.26 1025.24 1025.34 1025.54 1025.73 1026.01 1026.23 1026.31 1026.59 1026.75 1027.06 1027.44 1027.28 1026.82 1026.12 1025.44 1024.74 1024.42 1024.13 1023.92 1023.67 1023.25 1023.29 1022.92 1022.31 1021.93 1021.42 1020.97 1020.59 1020.30 1019.98 1019.51 1019.03 1018.55 1017.99
1021.99 1022.53 1022.61 1022.83 1023.03 1023.33 1023.53 1023.80 1024.29 1024.50 1024.85 1025.10 1025.28 1025.38 1025.51 1025.59 1025.86 1025.95 1026.10 1026.45 1026.94 1027.12 1026.31 1025.23 1025.03 1024.03 1023.76 1023.43 1023.14 1022.84 1022.88 1022.40 1022.03 1021.58 1021.11 1020.63 1020.24 1019.93 1019.52 1019.06 1018.79 1018.54 1018.18
1021.29 1021.39 1021.77 1022.06 1022.27 1022.47 1022.61 1023.08 1023.52 1023.77 1024.12 1024.21 1024.31 1024.49 1024.59 1024.64 1024.77 1024.99 1025.25 1025.51 1025.86 1026.17 1026.16 1024.89 1024.42 1023.86 1023.45 1023.06 1022.67 1022.44 1022.36 1022.18 1021.87 1021.43 1020.93 1020.42 1019.88 1019.62 1019.17 1018.89 1018.66 1018.39 1017.94
1020.25 1020.52 1020.82 1021.15 1021.64 1021.94 1022.07 1022.12 1022.37 1022.63 1023.04 1023.41 1023.67 1023.88 1023.90 1023.91 1024.04 1024.12 1024.28 1024.56 1024.94 1025.28 1025.20 1024.26 1023.79 1023.27 1023.17 1022.90 1022.50 1022.29 1022.10 1022.05 1021.87 1021.42 1020.86 1020.26 1019.72 1019.47 1018.98 1018.68 1018.48 1018.18 1017.82
1019.49 1019.81 1020.28 1020.58 1020.68 1021.02 1021.44 1021.64 1021.59 1021.70 1022.03 1022.12 1022.31 1022.75 1022.84 1023.11 1023.19 1023.29 1023.57 1023.75 1023.86 1023.97 1024.38 1024.01 1023.51 1023.20 1022.90 1022.36 1022.27 1022.14 1021.84 1021.61 1021.62 1021.19 1020.63 1020.11 1019.81 1019.40 1018.83 1018.33 1018.15 1018.18 1017.67
1018.77 1018.98 1019.02 1019.43 1019.86 1019.95 1020.31 1020.55 1020.80 1021.02 1021.14 1021.19 1021.31 1021.51 1021.56 1022.02 1022.11 1022.26 1022.53 1022.84 1022.91 1022.90 1023.25 1023.44 1022.92 1022.63 1022.32 1022.11 1021.99 1021.90 1021.75 1021.53 1021.24 1020.87 1020.56 1020.16 1019.71 1019.24 1018.74 1018.22 1017.80 1017.91 1017.58
1017.93 1018.10 1018.36 1018.53 1018.52 1018.92 1019.08 1019.24 1019.60 1019.96 1020.07 1020.15 1020.34 1020.51 1020.68 1020.77 1020.78 1020.87 1021.25 1021.48 1021.88 1022.16 1022.31 1022.54 1022.45 1022.29 1022.10 1021.73 1021.89 1022.05 1021.87 1021.49 1021.15 1020.59 1020.42 1020.13 1019.65 1019.16 1018.80 1018.22 1017.82 1017.61 1017.25
1016.98 1017.17 1017.40 1017.59 1017.82 1017.80 1017.97 1018.35 1018.62 1018.80 1019.03 1019.20 1019.28 1019.23 1019.23 1019.25 1019.40 1019.59 1019.94 1020.12 1020.50 1021.02 1021.29 1021.42 1021.61 1021.71 1021.70 1021.73 1021.92 1021.82 1021.89 1021.67 1021.00 1020.67 1020.44 1020.19 1019.63 1019.28 1018.78 1018.18 1017.75 1017.34 1016.72
1016.47 1016.72 1016.92 1016.75 1016.82 1016.78 1016.59 1016.60 1017.07 1017.37 1017.72 1017.92 1017.98 1018.11 1018.36 1018.54 1018.53 1018.42 1018.55 1018.86 1019.11 1019.46 1020.04 1020.50 1020.36 1020.81 1020.99 1021.20 1021.59 1021.63 1021.90 1021.84 1021.46 1020.29 1020.19 1019.64 1019.35 1019.04 1018.46 1018.02 1017.41 1016.83 1016.25
1015.87 1015.92 1016.09 1016.30 1016.08 1015.78 1015.82 1015.96 1016.20 1016.50 1016.66 1016.69 1016.76 1016.79 1016.99 1017.25 1017.54 1017.67 1017.64 1017.74 1017.89 1017.91 1018.29 1018.93 1019.39 1019.48 1019.97 1020.30 1020.77 1021.29 1021.43 1021.45 1021.19 1020.14 1020.06 1019.63 1019.16 1018.94 1018.02 1017.61 1017.08 1016.57 1016.10
1015.18 1015.32 1015.28 1015.43 1015.36 1014.93 1015.25 1015.39 1015.50 1015.51 1015.39 1015.46 1015.66 1015.72 1015.94 1016.08 1016.32 1016.62 1017.02 1017.25 1017.21 1017.22 1017.16 1017.34 1017.75 1018.15 1018.43 1019.05 1019.53 1019.86 1020.24 1020.65 1020.50 1019.94 1019.82 1019.87 1019.09 1018.90 1017.98 1017.44 1016.88 1016.40 1015.95
1014.21 1014.19 1014.21 1014.31 1014.56 1014.21 1014.19 1014.13 1014.47 1014.49 1014.23 1014.13 1014.45 1014.60 1014.73 1014.85 1015.07 1015.43 1016.01 1016.47 1016.57 1016.47 1016.40 1016.34 1016.49 1016.92 1017.37 1017.62 1018.45 1019.27 1019.90 1020.39 1020.46 1019.89 1019.32 1019.48 1019.19 1018.85 1018.15 1017.69 1017.00 1016.45 1016.04
1013.35 1013.58 1013.32 1013.27 1013.12 1012.88 1012.67 1012.83 1013.04 1013.36 1013.34 1013.21 1013.38 1013.72 1013.76 1013.94 1013.98 1014.15 1014.52 1015.12 1015.71 1015.56 1016.06 1016.08 1015.95 1015.98 1016.20 1016.71 1016.94 1017.89 1018.70 1019.60 1020.16 1019.90 1019.05 1019.23 1019.16 1019.02 1018.53 1017.78 1017.22 1016.63 1016.33
Wind_Speed
2 1 2 2 1 1 1 3 3 4 5 4 2 3 3 1 2 1 1 9 11 12 12 11 13 13 13 13 14 14 14 16 16 18 19 17 17 17 16 15 16 16 17
2 2 2 1 2 1 1 2 2 2 4 3 3 2 3 1 2 3 2 2 9 11 13 12 12 13 12 13 13 14 16 14 14 17 18 18 18 17 17 18 19 19 19
2 1 1 1 2 1 1 2 3 3 4 4 3 1 3 3 1 2 2 2 2 6 11 11 12 13 12 13 14 15 14 16 17 16 17 18 20 19 19 19 21 19 18
4 2 1 2 3 0 1 1 1 2 2 2 3 4 3 3 2 2 3 1 1 2 5 11 13 13 14 14 15 15 17 16 14 16 17 16 18 19 18 19 21 20 20
6 4 3 3 4 1 2 2 1 1 2 3 4 4 3 3 3 2 2 1 2 0 1 7 10 12 13 14 15 15 16 18 18 18 18 19 19 19 20 21 21 21 20
7 5 3 4 3 2 2 1 1 1 2 3 3 4 4 4 3 3 2 2 2 2 3 3 3 4 10 13 13 15 18 20 20 19 20 21 20 20 20 21 21 21 22
7 7 5 4 3 4 4 4 2 1 3 1 3 4 3 1 3 2 2 2 2 4 5 4 3 2 3 9 9 13 17 18 18 19 20 20 19 19 20 19 20 21 21
7 6 6 6 5 4 5 4 3 1 2 0 2 1 4 5 4 2 1 2 2 3 4 6 5 3 1 1 4 11 15 16 18 19 19 20 19 19 21 20 20 20 21
8 7 7 6 6 5 5 5 4 5 3 2 3 4 2 2 3 3 2 1 3 3 4 4 5 4 5 2 2 5 14 16 17 20 19 18 19 19 19 20 20 21 20
8 8 8 7 7 5 6 5 5 4 4 4 2 3 2 4 3 4 3 4 4 3 5 4 5 4 4 2 3 7 13 15 17 18 19 19 18 19 20 22 22 21 21
8 8 8 8 7 5 6 7 6 6 4 4 4 2 2 3 3 4 4 4 3 4 4 4 4 3 5 3 3 6 13 14 17 17 17 19 18 18 20 22 21 22 19
6 8 9 9 8 7 7 6 7 7 7 5 4 5 5 4 3 3 4 4 5 4 4 5 4 4 4 4 7 9 12 12 15 16 17 16 17 18 20 19 20 21 21
6 10 10 9 8 8 8 6 6 7 7 5 6 5 4 5 4 3 3 4 4 3 4 4 4 3 4 5 5 10 8 12 15 15 16 15 15 17 19 21 23 23 24
9 8 10 9 10 10 9 7 5 6 6 6 8 6 4 5 4 4 4 3 4 3 2 6 3 4 4 4 8 14 4 10 14 16 16 16 14 17 18 18 19 21 22
8 8 11 11 11 11 11 9 8 8 6 6 7 7 6 5 4 5 4 4 5 3 4 4 3 4 4 4 7 4 4 10 12 17 18 17 15 17 17 17 18 19 21
9 10 11 12 11 12 11 10 8 7 9 7 7 8 7 5 6 5 5 4 4 5 5 4 5 4 5 4 7 3 3 4 11 16 16 16 16 17 17 17 16 18 20
11 12 11 12 12 12 12 11 11 10 12 10 9 7 11 7 6 5 5 5 5 4 7 5 4 3 3 5 6 3 1 2 3 14 15 16 14 16 17 15 14 16 19
10 12 10 11 12 12 11 13 13 13 13 13 13 11 11 7 8 7 5 7 5 6 5 11 4 3 5 5 4 3 3 2 3 10 16 13 14 15 17 17 12 14 19
10 11 12 12 12 12 12 13 13 13 12 14 13 12 13 9 11 6 7 7 6 6 5 5 8 3 4 2 3 2 3 3 2 11 10 10 16 13 15 17 11 13 18
11 11 12 13 13 13 13 13 13 13 14 13 13 13 13 13 14 10 9 10 7 6 5 5 7 4 3 3 1 3 4 1 3 3 5 9 14 13 14 13 13 12 16
11 12 12 12 12 13 11 14 14 14 14 14 13 14 14 17 23 18 9 9 9 8 6 6 7 3 3 2 4 2 2 3 4 3 3 4 3 3 5 10 10 14 15
7 7 11 12 12 11 22 25 18 14 15 15 15 13 14 21 23 28 27 23 15 10 10 6 7 7 5 4 2 2 2 3 3 2 2 5 2 4 5 4 12 13 14
7 8 9 9 13 13 22 24 25 14 13 14 15 14 12 11 19 13 22 26 24 25 19 10 10 8 5 6 5 3 4 4 4 4 2 4 1 3 5 5 11 12 14
8 7 9 9 11 11 19 22 24 17 15 15 15 15 14 13 13 13 11 12 12 9 11 9 10 9 7 7 7 7 6 4 5 6 4 4 2 3 4 4 9 10 12
7 8 7 9 10 13 17 20 19 14 15 16 14 15 14 15 19 24 12 13 12 12 14 23 20 15 15 15 11 4 2 2 3 3 2 2 3 3 2 3 5 11 15
9 6 9 9 15 14 17 20 19 11 13 12 12 14 24 19 24 26 17 12 11 14 8 6 4 10 15 12 17 8 5 4 3 3 3 2 2 2 4 2 4 4 5
Wind_Direction
181 145 186 143 123 88 25 333 325 326 324 342 310 111 94 88 115 92 34 18 18 13 11 18 10 5 8 3 356 0 358 357 350 352 346 338 341 345 337 327 322 320 315
189 185 181 163 131 137 318 300 285 305 323 326 357 250 148 155 117 141 121 22 23 15 10 8 4 360 4 354 355 355 350 352 349 345 341 335 333 338 336 338 328 331 323
179 189 199 177 193 174 297 342 346 346 353 337 348 355 248 193 149 153 158 155 20 8 12 360 1 358 358 351 353 354 353 348 353 350 338 334 330 335 335 329 330 329 320
181 189 255 219 224 145 274 288 321 328 333 340 312 319 258 184 178 132 197 157 197 337 341 340 354 0 353 353 355 355 352 345 349 341 336 327 329 325 327 326 322 322 327
187 186 214 239 216 180 283 271 312 150 298 311 291 296 277 239 192 186 224 217 196 105 311 335 348 351 347 350 351 350 348 347 345 343 336 332 325 321 321 313 315 315 318
193 189 219 232 193 186 276 252 222 299 254 262 291 302 279 231 217 219 231 248 219 272 294 298 312 315 333 342 345 342 351 344 332 343 333 332 322 328 320 317 310 312 309
198 191 204 222 223 205 216 216 208 253 309 320 356 328 328 264 238 259 235 210 329 312 289 302 265 283 303 358 357 347 341 333 330 337 332 324 326 322 315 314 311 310 311
200 193 194 210 210 210 230 230 196 218 259 229 149 101 354 339 332 314 251 205 316 309 315 294 263 269 54 93 338 349 343 325 337 333 331 326 325 323 322 316 313 309 310
199 194 197 199 217 200 210 210 197 183 206 291 194 148 39 247 315 315 316 245 322 337 314 308 278 268 180 184 342 332 328 331 334 339 334 330 330 325 323 318 315 313 316
205 199 196 196 209 210 215 215 198 191 152 224 323 221 194 157 186 321 312 276 331 297 301 313 293 284 203 226 294 314 325 332 334 332 332 332 327 330 323 326 326 315 313
207 203 199 200 203 204 215 213 215 199 190 178 190 219 230 236 211 180 277 299 321 280 282 282 296 261 226 255 266 286 318 317 332 329 329 336 328 331 326 326 314 313 322
216 212 202 205 205 208 213 211 216 210 205 206 199 201 186 184 208 191 234 256 253 276 267 281 298 248 245 247 247 275 307 322 333 328 334 331 331 327 326 312 329 329 334
218 223 206 205 209 207 213 210 209 213 207 200 204 213 206 212 182 198 204 252 257 281 279 265 252 237 247 240 253 268 300 324 332 337 331 331 332 327 319 320 332 331 335
216 205 208 212 211 206 209 203 212 220 208 215 218 216 216 217 194 191 190 196 306 287 289 244 275 250 280 252 255 267 301 314 339 337 335 327 334 326 325 329 331 328 329
209 199 204 210 214 213 211 203 213 220 209 215 221 219 219 221 214 216 195 179 178 274 277 283 260 259 293 298 278 259 258 320 339 337 331 321 322 329 323 323 325 325 324
206 205 209 213 215 217 209 206 217 217 213 221 220 217 222 212 216 213 209 204 189 198 247 210 240 254 272 288 288 295 301 15 342 338 327 320 317 324 325 322 331 328 327
204 212 208 209 215 216 216 209 213 211 215 225 228 217 233 213 224 219 205 206 206 189 238 272 250 263 278 288 293 275 249 275 312 332 323 321 330 323 319 319 319 333 333
211 214 213 214 212 213 215 221 220 221 218 221 224 225 227 221 225 219 211 218 207 202 211 262 246 255 240 267 251 239 242 294 315 324 323 318 336 321 322 323 329 337 336
212 215 210 212 213 210 211 219 224 223 223 227 225 221 228 211 230 217 213 219 219 226 207 236 268 237 252 261 274 261 249 278 302 326 321 328 327 326 321 322 324 330 330
210 211 215 220 216 215 216 216 217 224 227 229 227 224 226 216 227 218 214 220 217 219 211 228 257 253 240 269 210 238 294 279 293 301 303 313 328 328 327 328 329 317 329
215 214 212 217 221 217 217 222 222 224 225 232 233 229 226 224 227 224 220 216 207 214 213 221 245 221 236 265 231 226 245 289 278 231 270 277 284 295 297 308 310 301 317
217 209 222 221 221 224 229 223 214 217 222 227 232 233 237 237 239 240 237 224 207 208 219 216 236 229 232 204 197 180 259 323 315 245 273 295 223 280 283 288 301 316 335
219 223 228 228 237 233 234 230 227 227 230 228 230 234 229 230 235 236 243 243 243 231 217 206 228 214 208 198 170 197 228 236 239 277 54 291 266 287 285 294 310 322 350
222 231 238 238 243 245 242 241 236 232 232 232 229 230 230 231 225 224 226 231 238 241 240 233 211 228 212 185 180 180 192 232 270 271 187 259 278 269 309 307 334 337 351
221 222 230 230 229 253 246 242 239 237 239 238 228 228 225 226 227 231 219 228 233 239 241 240 235 228 230 211 196 143 200 153 297 273 257 179 292 292 302 304 315 342 338
230 223 237 225 232 242 240 238 236 237 244 243 238 235 232 230 230 231 231 210 223 233 214 228 240 242 239 229 218 191 171 190 189 321 252 159 322 357 334 291 300 317 326